ABS-2

Last updated on Tue Sep 16 2025 00:02:48 GMT+0000 (Coordinated Universal Time)

1 39508U 14006A 25258.52806903 -.00000103 00000+0 00000+0 0 9994 2 39508 0.0207 247.8091 0003587 287.5817 84.3669 1.00271622 42528
UTC large
Height (km)
Speed (km/s)
/
Latitude / Longitude
Inclination (degrees)
Orbital Period (minutes)
Azimuth
Elevation
Range (km)
Doppler Factor

Next 0 passes for location: London (51.5072 / 0.1276)

Sorry there are no passes over London.